Погода в Селятине

Украина / Черновицкая область     47°52′24″N   25°11′11″E
темп.,
°C
ветер,
м/с
пор.,
м/с
влажн.,
%
обл.,
%
осадки,
мм/ч
давл.,
гПа
погр.,
м
23 октября, сб
сб2300:00+4ююз2288100 0.0 101849
03:00+5ююз1383100 0.0 1017234
06:00+3юз259272 0.0 1018289
09:00+4зюз28815 0.0 1019663
12:00+8з474710 0.0 10201467
15:00+8з58467 0.0 10201677
18:00+4з49674 0.0 1023613
21:00−1з228921 0.1 102623
24 октября, вс
вс2400:000з11875 0.0 102716
03:00−2з11927 0.0 102913
06:00−2з119461 0.0 103012
09:000з117814 0.0 103195
12:00+4ссз344611 0.0 10301310
15:00+6с35396 0.0 10291465
18:00+1ссв22724 0.0 103248
21:00−3сз11966 0.0 103610
25 октября, пн
пн2500:00−3юз119522 0.0 103610
03:00−3юз119189 0.0 103510
06:00−2юз118345 0.0 103410
09:00+1ююз11625 0.0 103345
12:00+8юв21340 0.0 1030581
15:00+10юв22314 0.0 1027819
18:00+3ююв22610 0.0 102910
21:00+1ююз22640 0.0 103014
26 октября, вт
вт2600:00+1юз22600 0.0 102914
03:00+1юз22600 0.0 102813
06:00+1юз21590 0.0 102711
09:00+3зюз11520 0.0 102515
12:00+12юв11330 0.0 1021495
15:00+13в11340 0.0 1020966
18:00+5св11690 0.0 102210
21:00+2зюз21810 0.0 102410
27 октября, ср
ср2700:00+2зюз21790 0.0 102411
03:00+1зюз217470 0.0 102510
06:00+1з117097 0.0 102510
09:00+2сз116296 0.0 102625
12:00+9с11435 0.0 1024560
15:00+10ссв22410 0.0 1024968
18:00+4ссв21665 0.0 102610
21:00+1сз11780 0.0 103010